Location: Arrien
(42.8963°N, 1.0429°E)
Time: 09:32:05
(UTC+00:00)

ISS - Pass Details

Date: 20 February 2026
Orbit: 416 x 426 km, 51.6° (Epoch: 9 March)

Event Time Altitude Azimuth Distance (km) Brightness Sun altitude
Exits shadow 03:58:11 11° 53° (NE) 1,452 -0.3 -31.3°
Drops below altitude 10° 03:58:17 10° 53° (NE) 1,495 -0.2 -31.3°
Sets 04:00:24 0° 56° (NE) 2,360 1.1 -30.9°
